PUNTA_ARENAS/PRES_C current weather conditions

sailwx.info

Wind from 230 at 13 knots

Air temperature 5.0° C
Visibility: greater than 5.4 NM
Dewpoint -2.0° C

Last reported at 2019-Sep-15 14:00 UTC.
Time now 2019-Sep-15 14:45 UTC

Location: S 53°00' W 070°50'.
View on Google Maps.

See reports from other nearby stations

  
Tides and Currents Weather Stations Pressure Air Temp Water Temp Dewpoint Dewpoint Depression Visibility Wind Speed Wind Dir Waves Ship Positions
date/time (UTC)wind fromknots sea level pressurealtimeterstation pressurevisibilityair tempwater tempwave heightnotes
2019-Sep-15 14:00 230 13 5.4 5.0
2019-Sep-15 13:00 240 7 5.4 4.0
2019-Sep-15 12:00 270 6 5.4 1.0
2019-Sep-15 11:00 260 6 5.4 1.0
2019-Sep-15 10:00 250 6 5.4-0.0
2019-Sep-15 09:00 230 11 5.4 2.0
2019-Sep-15 08:00 220 5 5.4 2.0
2019-Sep-15 07:00 230 7 5.4 3.0
2019-Sep-15 06:00 250 6 5.4 1.0
2019-Sep-15 05:00 260 7 5.4-0.0
2019-Sep-15 04:00 250 8 5.4 2.0
2019-Sep-15 03:00 240 6 5.4 2.0
2019-Sep-15 02:00 240 6 5.4 3.0
2019-Sep-15 01:00 250 6 5.4 3.0
2019-Sep-15 00:00 210 2 5.4 3.0
2019-Sep-14 23:00 140 5 5.4 5.0 Light rain showers.
2019-Sep-14 22:00 230 7 5.4 6.0
2019-Sep-14 21:00 240 13 5.4 6.0
2019-Sep-14 20:00 250 12 5.4 6.0
2019-Sep-14 19:00 250 9 5.4 7.0
2019-Sep-14 18:00 230 8 5.4 7.0
2019-Sep-14 17:00 240 7 5.4 4.0 Light rain showers.
2019-Sep-14 16:00 280 14 5.4 5.0 Light rain showers.
2019-Sep-14 15:00 270 12 5.4 7.0 Light rain showers.
2019-Sep-14 14:00 310 8 5.4 5.0 Light rain showers.
2019-Sep-14 13:00 330 6 5.4 4.0 Light rain showers.
2019-Sep-14 12:00 350 6 5.4 3.0 Light rain.
2019-Sep-14 11:00 350 6 5.4 3.0 Light rain showers.
2019-Sep-14 10:00 310 6 5.4 3.0
2019-Sep-14 09:00 340 4 5.4 3.0
2019-Sep-14 08:00 5.4 3.0 Light rain showers.
2019-Sep-14 07:00 350 5 5.4 3.0
2019-Sep-14 06:00 020 6 5.4 3.0
2019-Sep-14 05:00 340 4 5.4 2.0
2019-Sep-14 04:00 320 8 5.4 1.0
2019-Sep-14 03:00 320 9 5.4 2.0
2019-Sep-14 02:00 290 6 5.4 1.0
2019-Sep-14 01:00 300 5 5.4 1.0
2019-Sep-14 00:00 330 6 5.4 3.0
2019-Sep-13 23:00 340 5 5.4 3.0
2019-Sep-13 22:00 250 6 5.4 6.0
2019-Sep-13 21:00 260 8 5.4 7.0
2019-Sep-13 20:00 260 9 5.4 7.0
2019-Sep-13 19:00 260 13 5.4 7.0
2019-Sep-13 18:00 250 13 5.4 7.0
2019-Sep-13 17:00 260 14 5.4 6.0
2019-Sep-13 16:00 270 17 5.4 6.0
2019-Sep-13 15:00 280 14 5.4 5.0
2019-Sep-13 14:00 280 12 5.4 4.0